Dewpoint
26 21 18 19 18 12 15 14 14 16 21 32 34 36 37 42 42 42 42 43 43 44 45 49 50 52 52 53 55 54 54 53 52 49 51 48 48 49 48 45 43 43 42 41
23 21 23 27 27 24 22 20 20 23 28 33 34 31 34 36 40 42 42 43 43 43 43 44 46 48 49 50 53 53 50 48 49 49 49 50 47 46 45 41 40 41 40 39
22 23 27 28 27 26 27 22 22 22 31 32 31 31 32 36 41 42 42 42 42 43 43 42 42 42 47 47 45 44 44 44 46 48 45 43 44 45 42 41 37 38 39 39
28 30 27 25 25 27 24 28 25 27 26 25 28 28 30 35 38 40 41 41 42 41 40 39 38 37 38 38 39 39 40 39 40 40 40 39 40 41 42 38 35 37 39 39
28 28 27 25 26 28 28 29 26 24 23 22 25 27 27 35 37 39 40 41 42 41 40 39 38 38 39 39 39 39 39 40 39 39 41 42 40 41 37 35 35 35 37 38
28 30 28 27 30 28 30 30 30 30 27 21 24 25 26 32 35 38 39 41 42 41 41 40 41 41 40 40 39 39 40 39 40 40 40 39 39 35 34 36 37 36 37 38
27 28 28 30 28 30 31 27 24 23 22 22 28 27 27 32 35 38 39 40 41 42 41 41 41 41 41 40 40 39 37 37 37 37 36 36 35 34 36 37 38 37 39 39
26 23 26 27 28 26 28 28 25 19 21 23 27 26 28 32 34 38 39 39 40 41 43 41 40 38 37 36 35 36 36 36 37 37 37 37 36 37 38 39 39 39 39 39
26 25 28 27 28 30 28 24 28 27 25 23 26 27 31 36 36 37 37 38 40 40 39 40 39 39 39 39 38 36 36 37 37 38 38 39 39 39 39 40 40 39 38 38
30 22 28 26 31 30 27 29 24 25 17 17 23 26 27 32 34 36 36 37 38 39 39 39 37 37 37 37 38 39 37 33 31 31 35 35 34 35 36 37 37 37 37 36
30 25 24 29 27 27 28 27 28 27 24 18 18 23 29 32 35 33 35 37 38 38 38 36 35 35 34 33 33 31 28 26 27 29 31 31 32 33 35 36 36 35 34 35
33 29 25 25 29 32 28 28 25 20 19 24 21 20 29 32 33 36 37 37 37 37 36 35 34 33 27 26 26 26 25 25 27 27 29 30 32 33 34 35 35 34 34 34
30 27 25 25 26 27 27 32 29 27 27 25 19 20 33 35 35 36 37 37 37 37 36 35 33 31 26 24 25 25 25 23 24 24 25 29 32 33 33 32 32 32 32 32
36 30 24 22 23 26 23 28 28 25 22 23 23 20 32 33 35 36 37 37 36 35 35 34 32 28 24 24 25 24 23 24 24 23 25 29 31 34 34 33 32 32 33 35
31 26 28 30 30 28 25 23 29 25 25 22 23 23 25 33 35 36 37 36 35 34 34 33 32 27 23 24 24 23 23 24 25 24 25 29 32 33 34 35 35 35 35 36
32 26 26 28 31 30 26 24 25 27 26 28 28 27 32 36 37 37 36 36 35 34 33 33 32 28 24 23 22 21 22 23 25 25 25 30 32 32 33 34 34 34 35 34
27 27 20 13 27 23 16 22 24 25 26 26 26 27 36 36 37 37 36 35 35 34 32 32 32 30 25 23 22 20 21 23 24 25 26 30 32 32 32 32 33 33 33 32
29 26 21 18 18 6 19 27 28 28 30 32 32 33 36 36 37 37 36 36 35 33 31 31 32 30 23 22 20 21 21 22 23 25 26 30 31 31 31 32 32 31 32 31
30 25 23 16 17 16 16 30 32 29 26 35 34 35 36 36 35 35 36 36 35 34 33 32 29 24 20 20 19 19 21 22 23 24 25 28 31 30 31 31 30 29 29 27
31 26 22 18 9 5 18 27 33 30 26 36 36 35 36 35 30 34 36 36 34 33 30 24 21 18 18 18 20 21 22 23 24 25 26 29 30 29 28 27 27 28 22 23
27 25 16 19 11 19 23 32 33 25 25 37 36 36 36 34 36 35 36 35 34 26 19 20 19 19 21 22 23 22 23 24 25 26 28 28 28 28 26 26 25 23 23 25
29 25 20 21 14 14 28 32 28 32 33 37 37 37 36 36 34 36 37 30 20 19 18 19 20 21 23 23 24 25 25 26 27 28 28 28 28 27 26 26 23 24 24 22
26 26 25 24 24 27 31 33 34 36 34 38 38 39 38 37 37 38 29 22 19 18 18 20 21 22 23 25 26 26 27 28 28 29 29 28 28 27 27 25 22 22 21 18
32 32 28 29 29 31 33 34 37 39 38 39 40 40 39 38 38 31 22 20 19 19 20 21 22 22 24 26 27 28 28 28 29 29 28 28 27 27 27 24 22 21 19 18
32 34 31 30 33 34 35 38 38 40 41 41 41 40 39 38 31 25 21 21 20 21 22 22 23 24 25 26 28 28 28 28 29 30 30 29 28 29 27 22 23 23 22 22
35 32 30 29 31 31 31 34 40 41 42 42 40 39 35 32 25 23 23 23 23 23 23 22 24 26 26 27 28 28 28 28 28 30 30 29 29 31 27 24 24 26 27 27
Lifted_Index
0 0 0 0 0 1 1 0 0 1 2 2 2 2 2 2 2 1 0 -0 -1 -1 -2 -2 -2 -2 -2 -2 -2 -1 -1 -1 -1 -1 -0 1 2 2 3 4 4 4 5 5
0 0 0 0 0 1 1 1 0 1 1 2 1 1 2 2 2 2 1 0 -1 -1 -2 -2 -2 -2 -2 -1 -1 -0 -0 -0 0 1 1 2 3 3 4 4 4 5 5 6
0 0 0 0 0 1 1 1 1 0 1 1 1 1 1 2 1 1 1 0 -0 -1 -1 -1 -2 -1 -1 0 1 2 2 2 2 2 3 3 3 4 4 4 5 5 6 6
0 0 0 0 0 1 1 1 1 0 0 0 1 1 1 1 1 0 0 -0 -0 0 0 -0 0 1 2 2 3 3 3 3 3 3 3 3 3 3 4 4 5 5 6 7
0 0 0 0 1 1 1 1 1 0 0 0 1 1 1 1 1 0 0 0 1 1 2 2 2 2 3 3 3 3 3 3 3 2 2 3 3 3 4 4 5 6 7 8
1 1 1 1 1 1 1 1 1 1 0 1 1 2 2 1 1 1 0 1 1 2 2 2 2 2 3 3 3 3 2 2 2 2 2 3 3 4 5 6 7 8 9 9
1 1 1 1 1 1 1 1 1 0 0 1 1 2 2 1 1 1 1 1 1 2 2 2 2 2 2 3 3 2 2 2 3 3 4 5 5 6 7 8 9 9 10 10
1 1 2 1 1 1 1 1 1 1 0 1 1 2 2 1 1 1 2 2 2 2 2 2 1 2 2 2 2 2 3 3 4 6 7 8 8 9 9 10 10 10 10 10
1 1 2 1 1 1 2 2 1 1 1 1 1 2 2 2 2 2 2 2 2 2 2 2 2 2 2 2 3 3 4 5 7 9 10 10 11 11 12 12 11 11 11 10
1 1 1 1 1 1 2 2 2 2 1 1 1 1 2 2 2 2 2 2 2 2 2 2 2 2 2 3 3 4 5 7 8 10 11 11 12 13 13 14 13 12 11 10
0 1 1 1 1 2 2 3 3 2 2 1 1 1 2 3 3 2 2 2 2 3 3 3 3 3 3 3 4 5 7 8 9 10 11 12 13 14 14 14 14 12 11 11
1 1 1 2 2 2 2 3 3 3 2 2 1 2 3 3 3 2 2 3 3 3 3 3 3 3 4 4 5 7 8 9 10 11 12 13 13 14 14 14 14 13 12 11
1 1 2 2 2 2 3 3 3 3 2 2 1 2 3 3 3 3 3 3 3 3 3 3 4 4 4 5 7 8 9 10 11 11 12 13 13 14 14 14 14 13 12 11
2 2 2 2 2 3 3 3 3 3 2 2 2 2 3 4 3 3 3 3 3 3 3 4 4 5 5 6 8 9 10 11 11 12 12 13 13 14 14 14 13 13 12 11
3 3 3 3 3 3 3 3 3 3 3 2 2 3 4 4 4 3 3 3 3 3 4 4 5 5 6 8 9 10 10 11 11 12 12 13 13 14 14 14 13 12 11 10
3 3 3 3 3 3 3 3 3 3 3 3 3 3 4 4 4 3 3 3 3 3 4 5 5 6 7 9 10 10 11 11 11 12 12 13 13 14 14 13 13 11 10 9
4 3 3 2 2 2 2 3 3 3 3 3 3 4 4 4 4 3 3 3 3 3 4 5 6 7 9 9 10 10 11 11 11 12 13 13 14 13 13 13 12 11 9 8
4 4 3 2 2 2 3 3 3 3 3 4 4 4 4 4 3 3 3 3 3 3 4 5 7 8 9 10 10 11 11 11 12 13 13 13 13 13 13 12 11 10 8 7
4 4 3 2 2 2 3 4 4 4 4 4 4 4 4 4 4 4 3 3 3 3 4 6 7 8 9 10 10 11 11 12 13 13 13 13 13 12 12 11 10 9 8 7
5 4 4 3 3 3 4 4 4 3 3 4 4 4 4 4 4 4 3 3 3 4 5 6 7 8 9 10 11 11 12 13 13 13 13 12 12 11 11 10 9 8 7 6
5 4 4 3 3 4 4 4 4 3 4 4 4 4 4 4 4 4 3 3 3 4 6 7 8 8 10 11 11 12 13 13 13 13 12 12 12 11 10 9 8 7 7 6
4 4 4 4 4 4 4 4 4 3 4 4 4 3 3 3 3 3 3 3 4 5 7 7 8 9 10 12 12 13 13 13 13 13 13 12 11 10 8 8 8 7 7 6
5 4 4 4 4 4 4 4 4 3 3 3 3 3 2 2 3 2 3 3 4 6 7 7 8 9 10 12 13 13 13 13 13 13 13 12 10 9 8 7 7 7 7 6
5 4 5 5 4 4 4 4 4 3 3 2 2 2 2 2 2 2 3 4 5 6 7 8 8 9 11 12 13 13 13 13 13 13 12 10 9 8 7 7 7 7 6 6
4 4 4 4 4 4 4 4 3 3 2 2 2 2 2 2 2 2 3 5 6 7 8 8 9 10 12 13 13 13 13 13 12 12 10 9 8 7 7 6 6 6 6 6
4 4 4 4 4 4 4 3 3 3 2 2 2 2 2 2 2 3 4 5 7 8 9 9 10 12 12 13 13 13 12 12 12 11 9 8 8 7 6 6 6 6 6 7